sat.trackr.live / text

‹ back to catalog

STARLINK-31531

NORAD 59477 · 2024-068Y

PAYLOAD ACTIVE UNKNOWN

§ Identity

Operator
Country
US
Launch date
2024-04-10
Launch site
AFETR
Launch vehicle
Mass (kg)
RCS (m²)

Purposes: comms

External: N2YO · Heavens-Above · Gunter

§ Orbital elements

Epoch: 2026-05-25T00:40:44.435712Z

Period
94.27 min
Inclination
43.0016°
Eccentricity
0.0001154
Mean motion
15.27562890 rev/d
Perigee alt
482.3 km
Apogee alt
483.9 km
Semi-major
6,861.2 km
B*
-1.3697e-4
RAAN
268.2430°
Arg perigee
292.4395°
Mean anomaly
67.6335°
Rev number
12,082

§ Raw data

STARLINK-315311 59477U 24068Y   26145.02829208 -.00004027  00000+0 -13697-3 0  99942 59477  43.0016 268.2430 0001154 292.4395  67.6335 15.27562890120826

JSON: /api/v1/satellites/59477 · /tle

For live sub-satellite position, see the globe view (requires WebGL).

§ Visibility from observer

Set your observer location to see the next 7 days of passes ≥ 10°. The values pass through the URL so the page stays shareable.

No JS? Fill the form by hand. The geolocation button needs JavaScript.